Location: Marshall
(39.8477°N, 87.1868°W)
Time: 03:35:17
(UTC+00:00)

BlueWalker 3 - Pass Details

Date: 15 May 2026
Orbit: 447 x 456 km, 53.2° (Epoch: 9 June)

Event Time Altitude Azimuth Distance (km) Brightness Sun altitude
Exits shadow 07:30:11 12° 324° (NW) 1,457 4.5 -26.4°
Maximum altitude 07:31:14 13° 343° (NNW) 1,389 4.7 -26.3°
Drops below altitude 10° 07:33:01 10° 14° (NNE) 1,575 5.4 -26.1°
Sets 07:36:05 0° 42° (NE) 2,450 6.7 -25.8°
